RH
61 59 53 49 45 49 47 39 41 46 51 52 54 57 50 35 32 27 31 30 24 17 15 15 14 12 12 14 11 9 8 9 9 9 9 8 9 10 13 13 11 15 24
55 55 54 47 47 45 51 48 40 39 45 50 52 55 56 50 42 32 27 25 32 32 25 19 20 20 23 13 8 8 8 9 9 9 9 9 13 15 16 17 13 16 24
49 47 46 46 44 46 43 44 43 34 32 38 44 51 58 60 58 44 31 25 25 30 30 28 29 26 25 13 13 17 20 19 16 13 13 10 11 15 18 16 13 15 19
48 46 45 47 41 41 46 46 47 44 37 30 35 50 58 60 58 55 43 29 23 26 28 26 24 24 22 15 10 21 25 23 26 24 22 17 13 14 15 18 19 18 16
43 42 40 42 44 43 38 39 47 51 50 43 32 33 46 58 54 55 52 36 24 25 28 29 26 23 20 13 9 11 23 27 29 30 30 21 15 16 26 33 32 28 26
34 32 26 25 27 34 36 34 36 42 50 56 54 39 34 43 52 53 54 33 28 27 30 34 32 20 14 11 10 10 15 27 28 28 35 22 40 47 43 52 50 46 50
28 23 23 22 22 22 22 27 31 32 35 47 56 64 47 37 43 53 50 36 30 34 37 33 35 26 15 13 11 10 10 13 20 30 34 38 39 51 45 50 51 47 44
21 20 20 19 20 20 21 21 23 28 31 34 38 52 64 60 53 51 49 47 46 43 42 44 39 25 21 19 13 11 10 10 18 30 45 45 44 42 44 45 50 42 39
17 15 13 12 11 10 10 10 14 19 26 30 33 36 53 63 65 69 62 59 60 55 55 54 36 27 23 24 15 11 10 10 20 37 42 48 43 39 32 39 38 36 33
15 14 14 14 14 13 13 12 10 9 10 17 30 34 38 54 60 63 69 71 68 66 60 56 42 33 33 28 21 16 12 11 16 42 50 51 46 46 40 31 34 32 30
17 16 15 14 15 15 15 14 13 12 10 9 11 26 36 39 49 57 60 68 70 71 67 59 50 44 47 50 40 17 16 15 25 32 44 48 48 45 39 35 33 27 24
17 18 17 15 15 15 15 15 14 15 13 12 13 11 23 34 42 47 56 60 65 69 69 67 62 53 50 55 56 38 22 18 29 33 35 38 48 42 37 37 35 29 23
18 19 19 17 17 16 15 15 15 16 17 16 16 20 24 25 35 42 49 54 59 62 66 66 71 67 61 61 61 56 37 29 29 32 25 34 37 36 37 35 32 25 21
18 19 19 17 17 16 17 17 18 17 18 19 18 16 22 29 32 37 49 49 55 64 65 60 63 69 75 73 70 73 55 41 38 35 30 25 26 29 27 28 29 27 17
15 15 13 14 15 17 19 20 19 19 18 18 18 19 19 23 24 31 39 58 65 67 68 69 63 65 74 82 80 77 75 59 48 38 30 26 24 21 21 22 22 24 20
12 12 11 11 12 14 16 17 19 21 22 22 22 20 19 19 19 22 24 38 55 64 69 70 71 67 66 71 78 81 82 78 69 54 37 28 21 20 18 20 26 25 19
11 11 11 11 11 12 13 13 12 14 16 19 21 24 24 22 20 21 17 16 25 47 66 71 74 75 74 70 71 81 87 84 82 73 56 44 26 21 17 19 34 29 24
11 12 12 11 12 12 12 11 10 10 11 14 17 21 26 28 25 24 21 18 17 18 31 56 68 75 75 74 76 75 83 90 86 82 75 63 47 23 19 22 36 37 42
11 12 12 12 13 13 13 12 10 10 11 13 15 18 24 27 28 27 26 24 20 18 20 26 41 57 66 71 75 80 81 81 92 97 83 78 68 44 26 26 37 41 41
12 13 13 13 14 14 14 13 10 10 12 14 16 17 20 23 26 27 28 27 27 25 23 23 27 42 64 66 70 73 77 81 82 86 90 82 81 70 46 31 33 41 39
13 14 16 15 15 16 16 14 11 13 14 16 17 19 20 22 24 27 28 27 27 28 29 30 27 28 41 53 72 69 70 77 75 73 86 87 83 86 70 48 34 39 42
14 16 18 18 18 18 17 15 13 15 17 18 19 20 21 23 25 26 28 28 28 28 29 33 37 36 37 41 51 86 72 74 80 78 82 78 88 88 80 80 59 43 43
15 17 19 21 20 20 19 16 16 18 19 19 21 20 22 25 27 29 31 30 30 31 30 29 31 33 36 35 42 54 65 70 65 76 78 82 76 84 88 91 82 69 55
18 22 25 24 23 22 21 18 18 20 24 25 26 26 27 28 30 34 36 35 33 33 31 31 31 31 35 36 40 42 54 58 62 74 67 78 85 84 87 88 83 85 77
32 31 30 29 28 28 24 22 23 26 29 29 30 33 32 34 35 36 39 39 36 36 36 35 34 34 33 34 35 41 41 56 52 56 69 66 70 74 79 85 89 89 91
40 38 38 38 37 35 31 30 31 31 33 33 33 35 37 38 38 42 43 42 39 39 40 40 39 39 38 38 39 38 39 42 51 58 61 59 74 69 68 75 75 84 90